Weather History for KBJC - January, 2014

Change the Weather History Date:

Friday, January 24, 2014

  Actual Average Record
Temperature  
Mean Temperature 40 °F -  
Max Temperature 57 °F 44 °F 64 °F (2013)
Min Temperature 23 °F 25 °F 6 °F (1991)
Degree Days  
Heating Degree Days 25    
Moisture  
Dew Point 5 °F    
Average Humidity 24    
Maximum Humidity 59    
Minimum Humidity 15    
Precipitation  
Precipitation 0.00 in - - ()
Sea Level Pressure  
Sea Level Pressure 30.20 in    
Wind  
Wind Speed 11 mph (West)    
Max Wind Speed 30 mph    
Max Gust Speed 36 mph    
Visibility 10 miles    
Events      
Averages and records for this station are not official NWS values.
T = Trace of Precipitation, MM = Missing Value Source: NWS Daily Summary

Daily Weather History Graph

Daily Weather History Graph

Search for Another Location

Airport or City:

Trip Planner

Search our weather history database for the weather conditions in past years. The results will help you decide how hot, cold, wet, or windy it might be!

Date:

Astronomy

Jan. 24, 2014 Rise Set
Actual Time 7:15 AM MST 5:10 PM MST
Civil Twilight 6:46 AM MST 5:39 PM MST
Nautical Twilight 6:13 AM MST 6:12 PM MST
Astronomical Twilight 5:41 AM MST 6:44 PM MST
Moon 12:45 AM MST (1/24) 11:30 AM MST (1/24)
Length of Visible Light 10h 53m
Length of Day
9h 55m
Last Quarter, 44% of the Moon is Illuminated
Jan 24
Last Quarter
Jan 30
New
Feb 6
First Quarter
Feb 14
Full
Feb 22
Last Quarter

Hourly Weather History & Observations

Time (MST) Temp. Windchill Dew Point Humidity Pressure Visibility Wind Dir Wind Speed Gust Speed Precip Events Conditions
12:14 AM 23.0 °F 18.4 °F 10.4 °F 59% 30.25 in 10.0 mi West 3.5 mph - N/A   Clear
12:35 AM 23.0 °F - 8.6 °F 54% 30.24 in 10.0 mi Calm Calm - N/A   Clear
12:55 AM 28.4 °F - 3.2 °F 34% 30.24 in 10.0 mi Calm Calm - N/A   Clear
1:15 AM 32.0 °F - 1.4 °F 27% 30.23 in 10.0 mi Calm Calm - N/A   Clear
1:35 AM 28.4 °F - 3.2 °F 34% 30.23 in 10.0 mi Calm Calm - N/A   Clear
1:55 AM 30.2 °F 26.7 °F 1.4 °F 29% 30.23 in 10.0 mi SSW 3.5 mph - N/A   Clear
2:14 AM 32.0 °F - -4.0 °F 21% 30.23 in 10.0 mi Calm Calm - N/A   Clear
2:35 AM 32.0 °F 23.6 °F 1.4 °F 27% 30.23 in 10.0 mi West 10.4 mph - N/A   Clear
2:55 AM 32.0 °F 22.5 °F 5.0 °F 32% 30.22 in 10.0 mi West 12.7 mph - N/A   Clear
3:15 AM 35.6 °F 24.0 °F 3.2 °F 26% 30.20 in 10.0 mi WNW 23.0 mph 28.8 mph N/A   Clear
3:35 AM 37.4 °F 25.9 °F 1.4 °F 22% 30.20 in 10.0 mi WNW 25.3 mph 31.1 mph N/A   Clear
3:55 AM 37.4 °F 26.4 °F 1.4 °F 22% 30.20 in 10.0 mi WNW 23.0 mph 29.9 mph N/A   Clear
4:15 AM 37.4 °F 26.6 °F -0.4 °F 20% 30.20 in 10.0 mi West 21.9 mph - N/A   Clear
4:35 AM 37.4 °F 26.9 °F 1.4 °F 22% 30.20 in 10.0 mi West 20.7 mph - N/A   Clear
4:55 AM 32.0 °F 20.5 °F 3.2 °F 30% 30.21 in 10.0 mi West 18.4 mph - N/A   Clear
5:53 AM 37.4 °F 26.4 °F 1.4 °F 22% 30.21 in 20.0 mi West 23.0 mph - N/A   Clear
6:50 AM 37.4 °F 27.5 °F -2.2 °F 19% 30.22 in 70.0 mi West 18.4 mph - N/A   Partly Cloudy
7:47 AM 35.6 °F 28.6 °F -2.2 °F 20% 30.24 in 70.0 mi West 9.2 mph - N/A   Scattered Clouds
8:55 AM 41.0 °F 37.1 °F 3.2 °F 21% 30.23 in 70.0 mi West 5.8 mph - N/A   Scattered Clouds
9:50 AM 46.4 °F 39.8 °F 10.4 °F 23% 30.22 in 70.0 mi West 16.1 mph - N/A   Scattered Clouds
10:47 AM 50.0 °F - 8.6 °F 19% 30.22 in 70.0 mi West 17.3 mph - N/A   Scattered Clouds
11:50 AM 53.6 °F - 10.4 °F 18% 30.18 in 70.0 mi WSW 19.6 mph 24.2 mph N/A   Scattered Clouds
12:52 PM 57.2 °F - 10.4 °F 16% 30.15 in 70.0 mi West 16.1 mph 21.9 mph N/A   Scattered Clouds
1:47 PM 55.4 °F - 8.6 °F 15% 30.14 in 70.0 mi West 15.0 mph - N/A   Scattered Clouds
3:47 PM 55.4 °F - 8.6 °F 15% 30.14 in 70.0 mi West 19.6 mph 25.3 mph N/A   Scattered Clouds
4:55 PM 51.8 °F - 8.6 °F 18% 30.15 in 70.0 mi West 18.4 mph - N/A   Scattered Clouds
5:55 PM 48.2 °F - 6.8 °F 19% 30.16 in 70.0 mi West 19.6 mph 24.2 mph N/A   Scattered Clouds
7:57 PM 44.6 °F 39.7 °F 10.4 °F 25% 30.17 in 30.0 mi WSW 9.2 mph - N/A   Scattered Clouds
8:47 PM 46.4 °F 42.4 °F 12.2 °F 25% 30.16 in 30.0 mi WSW 8.1 mph - N/A   Scattered Clouds
9:47 PM 48.2 °F - 8.6 °F 20% 30.17 in 30.0 mi WSW 17.3 mph 24.2 mph N/A   Scattered Clouds
10:14 PM 46.4 °F 39.2 °F 8.6 °F 22% 30.18 in 10.0 mi West 18.4 mph 28.8 mph N/A   Clear
10:35 PM 48.2 °F - 6.8 °F 19% 30.18 in 10.0 mi West 29.9 mph 35.7 mph N/A   Clear
10:55 PM 46.4 °F 38.1 °F 6.8 °F 20% 30.18 in 10.0 mi West 24.2 mph 29.9 mph N/A   Clear
11:15 PM 46.4 °F 38.7 °F 8.6 °F 22% 30.19 in 10.0 mi West 20.7 mph - N/A   Clear
11:35 PM 46.4 °F 38.7 °F 6.8 °F 20% 30.19 in 10.0 mi West 20.7 mph 33.4 mph N/A   Clear
11:55 PM 46.4 °F 38.7 °F 6.8 °F 20% 30.18 in 10.0 mi West 20.7 mph 26.5 mph N/A   Clear